• In Russia
  • List of Countries
  • For 7 days
  • Water Temperature
  • Weather Map
  • Weather Widgets
  • user-avatar
    Login

    Hourly Weather São Paulo

    Today, 28 May, Thursday

    Time Temperature Precipitation Wind Pressure Humidity
    00:00 +13°C° 0 mm 1 mps 701 mmHg 82%
    01:00 +12°C° 0 mm 2 mps 700 mmHg 83%
    02:00 +12°C° 0 mm 2 mps 700 mmHg 83%
    03:00 +12°C° 0 mm 2 mps 700 mmHg 85%
    04:00 +12°C° 0 mm 2 mps 700 mmHg 85%
    05:00 +10°C° 0 mm 2 mps 700 mmHg 85%
    06:00 +10°C° 0 mm 2 mps 700 mmHg 85%
    07:00 +12°C° 0 mm 2 mps 701 mmHg 79%
    08:00 +13°C° 0 mm 2 mps 701 mmHg 73%
    09:00 +14°C° 0 mm 2 mps 702 mmHg 67%
    10:00 +16°C° 0 mm 2 mps 702 mmHg 57%
    11:00 +18°C° 0 mm 2 mps 702 mmHg 48%
    12:00 +20°C° 0 mm 2 mps 703 mmHg 38%
    13:00 +21°C° 0 mm 2 mps 702 mmHg 37%
    14:00 +21°C° 0 mm 2 mps 702 mmHg 35%
    15:00 +23°C° 0 mm 1 mps 702 mmHg 34%
    16:00 +20°C° 0 mm 2 mps 702 mmHg 44%
    17:00 +18°C° 0 mm 2 mps 701 mmHg 54%
    18:00 +17°C° 0 mm 2 mps 701 mmHg 64%
    19:00 +16°C° 0 mm 2 mps 701 mmHg 68%
    20:00 +15°C° 0 mm 2 mps 702 mmHg 71%
    21:00 +15°C° 0 mm 1 mps 702 mmHg 74%
    22:00 +14°C° 0 mm 1 mps 702 mmHg 75%
    23:00 +14°C° 0 mm 1 mps 701 mmHg 76%

    Tomorrow, 29 May, Friday

    Time Temperature Precipitation Wind Pressure Humidity
    00:00 +14°C° 0 mm 1 mps 701 mmHg 77%
    01:00 +13°C° 0 mm 1 mps 701 mmHg 78%
    02:00 +13°C° 0 mm 1 mps 701 mmHg 79%
    03:00 +13°C° 0 mm 1 mps 701 mmHg 80%
    04:00 +12°C° 0 mm 1 mps 701 mmHg 81%
    05:00 +12°C° 0 mm 1 mps 701 mmHg 81%
    06:00 +12°C° 0 mm 1 mps 701 mmHg 82%
    07:00 +13°C° 0 mm 1 mps 701 mmHg 74%
    08:00 +15°C° 0 mm 1 mps 702 mmHg 65%
    09:00 +16°C° 0 mm 1 mps 702 mmHg 57%
    10:00 +20°C° 0 mm 1 mps 702 mmHg 48%
    11:00 +22°C° 0 mm 1 mps 702 mmHg 40%
    12:00 +24°C° 0 mm 1 mps 702 mmHg 31%
    13:00 +25°C° 0 mm 1 mps 702 mmHg 32%
    14:00 +25°C° 0 mm 2 mps 702 mmHg 32%
    15:00 +26°C° 0 mm 2 mps 701 mmHg 32%
    16:00 +24°C° 0 mm 1 mps 701 mmHg 41%
    17:00 +22°C° 0 mm 1 mps 701 mmHg 50%
    18:00 +18°C° 0 mm 0 mps 701 mmHg 59%
    19:00 +17°C° 0 mm 0 mps 701 mmHg 60%
    20:00 +17°C° 0 mm 0 mps 701 mmHg 62%
    21:00 +16°C° 0 mm 0 mps 701 mmHg 64%
    22:00 +16°C° 0 mm 0 mps 701 mmHg 64%
    23:00 +16°C° 0 mm 1 mps 701 mmHg 65%

    Day after tomorrow, 30 May, Saturday

    Time Temperature Precipitation Wind Pressure Humidity
    00:00 +16°C° 0 mm 1 mps 700 mmHg 66%
    01:00 +16°C° 0 mm 1 mps 700 mmHg 66%
    02:00 +15°C° 0 mm 1 mps 700 mmHg 66%
    03:00 +15°C° 0 mm 1 mps 700 mmHg 65%
    04:00 +14°C° 0 mm 1 mps 700 mmHg 66%
    05:00 +14°C° 0 mm 1 mps 700 mmHg 65%
    06:00 +14°C° 0 mm 1 mps 700 mmHg 65%
    07:00 +15°C° 0 mm 1 mps 700 mmHg 61%
    08:00 +16°C° 0 mm 1 mps 701 mmHg 56%
    09:00 +18°C° 0 mm 2 mps 701 mmHg 52%
    10:00 +20°C° 0 mm 2 mps 701 mmHg 46%
    11:00 +23°C° 0 mm 2 mps 701 mmHg 41%
    12:00 +25°C° 0 mm 3 mps 701 mmHg 35%
    13:00 +25°C° 0 mm 3 mps 701 mmHg 36%
    14:00 +25°C° 0 mm 3 mps 700 mmHg 37%
    15:00 +25°C° 0 mm 3 mps 700 mmHg 39%
    16:00 +24°C° 0 mm 3 mps 700 mmHg 45%
    17:00 +21°C° 0 mm 2 mps 699 mmHg 51%
    18:00 +20°C° 0 mm 2 mps 699 mmHg 57%
    19:00 +19°C° 0 mm 2 mps 699 mmHg 60%
    20:00 +19°C° 0 mm 1 mps 699 mmHg 63%
    21:00 +18°C° 0 mm 1 mps 699 mmHg 66%
    22:00 +18°C° 0 mm 1 mps 699 mmHg 68%
    23:00 +18°C° 0 mm 1 mps 699 mmHg 70%

    31 May, Sunday

    Time Temperature Precipitation Wind Pressure Humidity
    00:00 +16°C° 0 mm 1 mps 699 mmHg 72%
    01:00 +16°C° 0 mm 1 mps 699 mmHg 73%
    02:00 +16°C° 0 mm 1 mps 699 mmHg 74%
    03:00 +15°C° 0 mm 1 mps 699 mmHg 75%
    04:00 +15°C° 0 mm 1 mps 699 mmHg 76%
    05:00 +15°C° 0 mm 1 mps 699 mmHg 77%
    06:00 +14°C° 0 mm 1 mps 699 mmHg 77%
    07:00 +16°C° 0 mm 1 mps 700 mmHg 72%
    08:00 +18°C° 0 mm 1 mps 700 mmHg 66%
    09:00 +19°C° 0 mm 1 mps 701 mmHg 61%
    10:00 +20°C° 0 mm 2 mps 701 mmHg 52%
    11:00 +23°C° 0 mm 2 mps 701 mmHg 44%
    12:00 +25°C° 0 mm 2 mps 701 mmHg 35%
    13:00 +25°C° 0 mm 2 mps 701 mmHg 36%
    14:00 +25°C° 0 mm 2 mps 700 mmHg 36%
    15:00 +25°C° 0 mm 2 mps 699 mmHg 36%
    16:00 +24°C° 0 mm 2 mps 699 mmHg 42%
    17:00 +21°C° 0 mm 2 mps 699 mmHg 49%
    18:00 +20°C° 0 mm 2 mps 699 mmHg 55%
    19:00 +19°C° 0 mm 2 mps 699 mmHg 57%
    20:00 +19°C° 0 mm 1 mps 699 mmHg 59%
    21:00 +19°C° 0 mm 1 mps 699 mmHg 61%
    22:00 +18°C° 0 mm 1 mps 699 mmHg 64%
    23:00 +18°C° 0 mm 1 mps 699 mmHg 66%

    1 June, Monday

    Time Temperature Precipitation Wind Pressure Humidity
    00:00 +16°C° 0 mm 1 mps 699 mmHg 68%
    01:00 +16°C° 0 mm 1 mps 698 mmHg 69%
    02:00 +16°C° 0 mm 1 mps 698 mmHg 70%
    03:00 +15°C° 0 mm 1 mps 698 mmHg 71%
    04:00 +15°C° 0 mm 2 mps 698 mmHg 72%
    05:00 +15°C° 0 mm 2 mps 698 mmHg 72%
    06:00 +14°C° 0 mm 2 mps 698 mmHg 73%
    07:00 +16°C° 0 mm 2 mps 698 mmHg 68%
    08:00 +17°C° 0 mm 3 mps 699 mmHg 62%
    09:00 +19°C° 0 mm 3 mps 699 mmHg 57%
    10:00 +20°C° 0 mm 4 mps 699 mmHg 53%
    11:00 +22°C° 0 mm 4 mps 699 mmHg 48%
    12:00 +25°C° 0 mm 4 mps 699 mmHg 43%
    13:00 +25°C° 0 mm 4 mps 699 mmHg 43%
    14:00 +25°C° 0 mm 4 mps 698 mmHg 43%
    15:00 +26°C° 0 mm 3 mps 698 mmHg 43%
    16:00 +25°C° 0 mm 3 mps 698 mmHg 48%
    17:00 +24°C° 0 mm 2 mps 698 mmHg 53%
    18:00 +21°C° 0 mm 2 mps 698 mmHg 58%
    19:00 +21°C° 0 mm 2 mps 698 mmHg 60%
    20:00 +21°C° 0 mm 2 mps 698 mmHg 62%
    21:00 +20°C° 0 mm 2 mps 698 mmHg 64%
    22:00 +20°C° 0 mm 2 mps 698 mmHg 65%
    23:00 +19°C° 0 mm 2 mps 698 mmHg 67%

    2 June, Tuesday

    Time Temperature Precipitation Wind Pressure Humidity
    00:00 +19°C° 0 mm 2 mps 698 mmHg 69%
    01:00 +19°C° 0 mm 2 mps 698 mmHg 70%
    02:00 +19°C° 0 mm 3 mps 697 mmHg 70%
    03:00 +19°C° 0 mm 3 mps 697 mmHg 71%
    04:00 +18°C° 0.3 mm 3 mps 697 mmHg 75%
    05:00 +18°C° 0.3 mm 4 mps 697 mmHg 79%
    06:00 +18°C° 0.3 mm 4 mps 697 mmHg 83%
    07:00 +18°C° 0.1 mm 4 mps 698 mmHg 83%
    08:00 +18°C° 0.1 mm 4 mps 698 mmHg 82%
    09:00 +18°C° 0.1 mm 4 mps 698 mmHg 81%
    10:00 +19°C° 0.4 mm 5 mps 699 mmHg 79%
    11:00 +19°C° 0.4 mm 5 mps 699 mmHg 77%
    12:00 +20°C° 0.4 mm 6 mps 699 mmHg 74%
    13:00 +21°C° 0 mm 6 mps 699 mmHg 71%
    14:00 +21°C° 0 mm 6 mps 698 mmHg 68%
    15:00 +22°C° 0 mm 5 mps 698 mmHg 64%
    16:00 +21°C° 0 mm 5 mps 698 mmHg 68%
    17:00 +20°C° 0 mm 4 mps 698 mmHg 72%
    18:00 +19°C° 0 mm 3 mps 698 mmHg 77%
    19:00 +19°C° 0 mm 3 mps 699 mmHg 77%
    20:00 +19°C° 0 mm 2 mps 699 mmHg 78%
    21:00 +19°C° 0 mm 2 mps 699 mmHg 79%
    22:00 +18°C° 0 mm 2 mps 699 mmHg 81%
    23:00 +19°C° 0 mm 1 mps 699 mmHg 83%
    Show more